HST 1 20580U 90037B 24320.54376403 .00011204 00000-0 48059-3 0 9994 2 20580 28.4693 48.7973 0001842 239.9040 120.1370 15.21107916700070 ISS (ZARYA) 1 25544U 98067A 24321.38465264 .00018621 00000-0 33492-3 0 9992 2 25544 51.6413 281.3529 0007607 223.0065 238.0981 15.49853668482156 CXO 1 25867U 99040B 24323.87927738 .00000571 00000-0 00000+0 0 9997 2 25867 44.7074 141.5385 8725615 304.2436 359.8848 0.37806582 26304